Theta_e
323 322 321 320 321 321 321 321 322 322 322 323 324 324 323 323 324 324 322 322 323 320 318 319 319 317 317 317 317 316 317 320 321 321 322 323 325 326 327 331 335 333 332 333 323 311 309 311 310 310 311 310 311 310 310 310 310 310 309 309 308 308 307 307 308 307 307 308 311 313 315 317 318 319 320 321 321 321 321 321 322 322 322 321 319 317 315
323 322 321 321 321 322 321 321 321 321 321 322 322 323 322 322 323 322 321 322 321 319 320 320 319 319 319 318 318 317 317 319 320 321 323 326 326 324 324 329 333 334 333 332 322 309 308 311 310 309 310 310 310 310 309 309 309 308 308 307 305 305 304 305 305 306 306 306 307 308 310 313 315 317 318 318 319 319 319 319 319 319 319 318 317 316 314
323 322 322 322 321 322 322 321 321 321 321 322 321 322 322 322 323 321 321 323 321 320 322 324 323 322 319 317 316 314 315 319 321 322 324 324 323 322 322 323 328 332 332 332 325 313 309 311 310 309 310 309 309 309 309 309 308 308 307 306 305 304 304 304 305 306 307 307 307 308 308 309 311 313 315 316 316 317 316 316 316 316 315 314 313 313 313
323 322 322 322 321 322 322 321 322 321 321 322 321 321 321 321 322 322 322 323 321 321 323 324 323 323 319 317 315 314 315 318 319 319 320 321 321 320 319 320 325 330 332 333 331 319 311 310 311 310 310 309 309 309 309 308 308 307 306 305 305 305 304 305 306 306 307 308 309 309 309 309 310 311 312 313 314 314 314 314 314 313 312 312 311 311 310
323 321 321 321 321 323 322 321 321 320 320 321 320 320 321 320 321 322 322 321 320 322 324 323 322 323 321 319 317 317 318 319 319 318 318 319 318 317 319 320 323 328 328 323 318 314 311 311 311 310 310 309 309 309 309 308 308 306 305 305 305 305 305 305 306 307 308 309 309 309 310 310 310 310 311 311 312 313 313 313 312 311 311 310 309 309 309
323 321 321 322 323 324 323 320 318 319 319 320 320 320 320 319 319 320 320 319 318 320 322 322 322 322 321 321 320 319 320 321 321 320 318 319 318 318 321 322 323 327 323 314 311 312 312 311 311 310 310 309 308 309 308 308 307 306 304 304 305 305 305 305 306 307 308 309 309 309 309 309 309 309 310 310 310 311 311 311 310 310 309 309 308 308 308
321 320 321 324 324 323 322 319 318 317 317 318 319 319 318 318 319 319 319 319 318 319 320 321 321 321 321 322 321 321 322 322 320 319 318 318 319 320 321 323 326 325 317 311 311 313 312 311 311 310 309 309 308 308 308 307 307 306 304 304 305 305 305 305 306 307 308 309 308 308 308 308 308 308 308 308 308 308 309 309 308 308 307 307 307 306 306
320 320 321 324 324 321 321 321 318 317 318 318 319 320 318 317 318 318 318 318 317 318 319 320 321 321 321 321 320 320 321 321 319 317 317 318 320 322 321 322 324 320 313 311 312 312 311 311 310 309 308 308 307 307 307 307 306 305 303 303 304 305 305 305 306 306 307 308 307 306 306 306 306 307 306 306 306 306 306 306 306 305 305 305 305 304 304
320 320 321 322 323 322 322 321 318 317 319 318 318 320 319 316 316 317 317 317 317 317 318 318 321 321 320 320 319 318 319 321 318 316 316 319 320 320 318 317 317 315 312 312 312 311 311 310 309 308 308 307 306 306 306 305 304 303 302 302 303 304 305 305 305 306 307 307 306 305 305 305 305 305 306 305 305 305 305 304 304 304 304 304 304 303 303
319 320 321 322 324 324 322 319 318 317 318 318 318 319 319 318 317 317 317 317 317 317 317 319 320 320 320 319 318 318 318 318 316 317 319 320 317 313 312 312 311 311 310 310 310 310 309 309 308 308 307 306 306 305 304 304 302 301 301 301 302 303 304 305 305 305 306 306 306 306 306 306 306 305 305 305 304 304 304 304 304 304 303 302 302 302 303
318 320 321 322 323 324 321 320 319 317 319 320 319 320 320 318 316 317 317 317 317 317 317 319 321 321 320 318 317 319 318 317 316 318 320 319 314 309 309 310 310 309 309 308 308 308 307 307 306 306 306 305 304 304 303 302 300 299 300 301 301 302 303 304 305 305 305 306 306 306 306 306 306 306 305 304 304 304 303 303 303 302 301 301 301 301 302
318 320 321 322 322 322 322 321 318 318 319 320 322 322 321 318 317 317 317 316 317 317 318 319 320 319 318 317 319 323 323 319 318 318 317 318 316 310 306 306 306 306 306 305 305 305 305 305 305 304 304 304 303 303 302 301 300 299 299 299 300 302 302 303 304 305 305 306 306 306 306 306 305 305 304 303 303 302 301 301 301 300 300 300 300 301 301
318 320 321 322 322 322 324 322 317 317 319 320 322 322 321 321 321 318 317 318 317 317 317 318 318 316 316 318 323 328 326 321 320 318 309 305 306 304 302 302 302 302 302 302 303 303 303 303 303 303 303 303 302 301 301 300 300 299 299 299 299 300 302 302 303 303 304 305 305 305 305 305 304 303 303 303 303 302 300 299 299 299 300 300 300 300 300
319 320 321 322 322 321 323 322 317 317 320 320 320 320 323 329 327 319 317 319 317 317 317 317 316 315 318 323 325 324 325 323 323 318 308 303 304 302 299 300 301 300 300 300 300 300 301 301 301 301 302 302 301 300 300 300 300 300 299 299 298 299 301 301 302 302 303 303 304 304 303 303 302 302 302 301 301 301 300 300 300 300 300 299 299 298 297
319 320 321 323 323 321 320 319 317 318 319 319 320 323 324 327 327 322 319 319 318 317 316 316 317 317 321 326 326 322 324 324 321 317 314 311 308 301 297 298 300 299 298 298 297 298 298 299 300 300 301 300 300 299 299 299 299 299 299 299 298 299 299 300 300 301 301 301 302 301 301 301 300 300 300 299 299 299 299 298 298 297 297 296 295 294 293
319 320 320 322 321 318 317 317 317 318 318 317 320 324 321 320 324 324 322 321 321 320 318 319 320 320 322 325 324 321 320 319 316 313 309 305 299 295 295 298 299 298 296 295 295 296 296 297 298 299 300 300 299 298 298 298 298 298 298 298 298 298 298 298 299 299 299 299 299 299 298 298 298 298 297 297 296 296 296 295 295 294 293 292 291 291 290
318 320 319 318 317 316 316 318 317 317 319 319 319 320 319 320 323 322 321 322 324 322 320 321 322 322 323 324 322 319 317 314 311 308 304 299 296 294 295 296 297 296 294 293 293 294 294 296 297 298 299 299 297 296 296 296 297 297 297 297 297 297 297 297 297 297 297 297 297 297 296 296 296 296 296 295 295 294 293 293 292 292 291 290 289 289 288
317 318 316 315 316 315 315 318 318 316 319 322 319 318 318 317 319 318 318 321 324 323 321 321 321 322 323 320 318 316 313 310 306 303 299 296 293 293 293 294 294 293 292 292 292 292 292 294 295 296 297 297 295 294 295 296 296 296 296 296 296 295 295 295 295 295 295 294 294 294 294 294 294 295 295 295 293 293 292 291 291 290 290 289 288 287 287
318 318 316 315 316 316 316 317 317 315 318 320 320 321 320 317 317 319 318 320 322 321 320 322 323 322 320 318 316 313 309 305 302 301 299 295 292 292 292 292 291 291 291 291 291 290 290 291 292 293 294 294 293 294 294 295 295 295 295 295 294 293 293 293 293 293 293 292 292 292 292 292 292 292 293 293 292 291 291 290 289 288 288 288 287 286 286
316 317 316 317 318 317 316 317 316 315 317 319 319 319 317 315 315 316 316 317 318 317 318 321 322 319 316 315 314 309 305 302 300 298 296 293 290 291 292 291 291 291 291 291 291 289 287 288 290 291 291 292 292 293 294 294 294 294 294 293 293 292 292 292 292 291 292 291 291 291 290 290 291 291 291 291 291 291 290 290 289 289 288 288 287 287 287
315 316 315 316 317 316 315 315 314 314 315 318 319 316 313 313 315 315 313 312 313 314 316 317 317 317 313 310 309 306 302 300 299 297 294 290 289 291 291 291 291 291 290 290 289 287 286 287 289 290 290 291 292 293 293 293 294 294 293 292 292 291 291 291 290 290 290 290 290 290 290 289 289 289 289 289 289 289 289 289 289 288 288 287 287 287 287
315 315 314 313 315 316 313 313 315 316 316 317 319 315 312 314 317 317 315 311 307 308 310 311 313 315 311 306 305 303 301 299 297 294 291 288 288 289 290 289 290 289 289 288 287 285 285 287 289 289 289 290 291 292 292 292 293 294 293 292 291 290 290 290 290 289 289 289 288 289 289 288 288 288 288 288 288 288 288 288 287 287 287 286 286 286 286
314 314 313 313 315 317 314 312 316 319 317 316 317 314 312 314 314 313 316 315 310 307 307 307 309 310 307 304 302 301 298 295 293 291 289 288 288 289 288 288 288 287 287 287 286 284 285 287 288 289 289 289 290 291 291 291 292 293 293 292 290 289 289 289 289 289 289 288 288 288 287 287 287 287 287 287 287 287 287 287 287 286 286 286 286 285 285
313 315 314 313 315 317 314 312 315 316 314 315 315 313 311 312 309 306 310 314 312 310 309 307 304 304 303 301 299 298 295 292 289 289 289 288 288 288 287 287 286 286 285 285 284 283 284 286 287 287 287 288 288 289 290 290 290 292 293 292 290 289 288 288 288 288 288 288 287 287 287 286 286 286 286 286 286 286 286 286 286 286 285 285 285 285 285
313 315 313 311 314 318 316 312 312 312 312 312 312 311 310 310 308 306 308 309 308 308 309 307 302 299 299 298 296 293 292 290 288 287 288 287 286 286 285 285 285 284 283 282 282 282 284 285 285 286 286 286 287 289 289 289 290 291 291 291 290 289 288 288 288 288 288 287 287 287 287 286 286 286 285 285 285 285 285 285 285 285 285 285 285 285 285
315 316 313 310 312 315 314 311 310 311 312 311 310 311 311 309 307 305 304 303 302 302 304 304 300 296 294 294 292 290 288 288 287 286 286 285 284 283 283 283 282 282 281 281 281 283 284 284 285 285 285 285 286 288 288 288 289 290 290 289 289 288 287 287 287 287 286 286 286 286 285 285 285 284 284 284 284 284 284 284 284 285 285 285 284 284 284
314 314 312 310 310 311 311 312 312 313 313 313 313 311 307 303 301 299 296 295 295 295 295 295 294 292 290 289 289 288 287 287 286 285 283 282 282 281 281 281 281 281 281 280 280 281 283 283 284 284 283 283 285 286 287 287 289 289 288 288 287 286 286 286 286 285 284 284 284 284 283 283 283 283 283 283 283 283 282 282 282 283 283 283 283 283 283
310 310 310 311 312 311 309 309 311 311 310 309 308 305 300 298 299 300 299 297 295 293 291 290 290 290 290 288 287 287 286 285 284 282 281 280 280 280 280 280 280 280 280 279 279 280 281 281 282 281 280 281 283 284 285 286 287 287 286 286 285 284 284 284 284 283 283 283 283 283 283 283 283 283 283 283 283 282 282 281 281 281 281 282 282 282 282
306 305 304 306 308 309 307 305 306 308 306 302 300 298 298 300 301 300 298 296 294 293 292 290 289 289 288 287 287 287 286 284 282 280 279 279 279 279 279 279 279 279 278 277 277 278 278 279 279 278 278 279 281 282 283 284 286 285 285 285 285 284 283 283 283 283 283 283 283 283 283 283 283 283 283 283 282 282 281 281 281 280 281 281 281 281 281
299 299 300 299 299 303 307 307 305 304 301 299 298 297 298 300 301 297 293 291 291 291 291 289 288 288 287 285 285 284 283 281 280 279 278 278 278 278 278 279 279 278 276 275 275 276 276 276 277 277 277 278 280 281 282 283 284 283 283 283 283 283 282 282 282 283 283 283 282 282 282 282 282 281 281 281 280 280 280 280 280 279 280 280 280 280 280
296 297 299 298 297 300 305 304 301 299 296 296 297 297 296 298 299 294 291 290 290 289 288 287 287 286 284 282 281 281 280 279 278 277 277 278 278 278 279 279 277 275 273 272 273 274 275 275 275 275 276 278 279 280 281 282 282 282 282 282 282 282 282 282 283 283 283 283 282 282 282 281 281 280 280 279 279 278 278 278 278 278 278 279 279 279 279
297 298 298 298 298 300 301 299 298 297 296 295 297 298 297 297 297 293 289 288 287 286 285 285 284 282 280 279 279 278 277 276 276 275 275 275 276 276 277 276 274 272 271 271 272 273 274 274 274 275 276 278 279 280 281 282 283 283 283 283 283 283 283 283 283 283 283 283 282 282 282 281 280 280 279 278 278 278 278 277 277 277 277 277 277 278 278
298 302 301 300 299 300 299 297 296 296 295 294 295 295 294 293 292 289 286 285 284 283 282 281 279 278 278 278 277 276 275 275 274 273 273 272 272 273 273 273 272 271 271 271 272 273 274 275 275 275 277 278 280 281 281 282 283 283 282 282 282 282 282 282 282 282 282 281 281 280 280 280 279 279 278 278 277 277 277 277 276 276 276 276 276 276 276
289 293 294 294 296 298 298 295 294 293 291 290 289 288 288 287 286 284 283 282 281 281 279 278 278 277 277 277 276 276 276 276 274 273 271 270 270 270 271 271 272 272 271 272 273 274 275 275 275 276 277 278 279 280 280 281 281 281 281 281 281 281 281 281 281 280 280 280 279 279 279 279 278 278 278 277 277 276 276 276 275 275 275 275 275 275 275
282 284 285 287 291 294 294 292 290 289 287 286 284 283 283 283 282 281 280 280 279 279 278 277 278 277 277 277 276 276 276 275 273 272 270 269 269 270 271 272 272 272 271 271 272 273 273 274 275 276 276 277 278 279 279 280 280 280 280 280 280 280 280 280 279 279 279 278 278 277 277 277 277 276 276 276 275 275 275 274 274 274 273 274 274 274 274
280 282 282 282 284 286 287 286 285 284 283 282 281 280 279 279 279 279 278 278 277 277 277 277 276 276 275 274 274 273 273 273 272 271 271 270 270 270 271 271 270 270 270 269 270 271 272 273 274 275 275 276 277 277 278 278 279 279 279 279 279 278 278 277 277 277 277 276 276 276 276 275 275 275 274 274 274 273 273 273 273 273 273 273 273 273 274
276 277 278 277 277 278 279 278 278 278 277 276 276 276 276 277 276 276 276 276 275 275 275 274 273 272 271 271 271 271 272 272 272 272 272 271 271 271 271 271 270 269 268 268 268 269 271 272 272 273 274 275 275 276 276 276 276 277 276 276 276 276 276 276 276 275 275 275 275 275 275 274 274 274 273 273 273 272 272 272 272 272 272 272 272 272 273
273 273 273 273 273 273 273 273 273 273 273 273 273 273 273 274 274 274 273 273 273 273 272 271 270 269 269 269 269 269 270 271 272 272 272 273 273 272 270 268 269 268 267 267 268 269 270 271 272 272 273 273 274 274 274 274 274 275 275 275 275 275 275 275 275 275 275 274 274 274 274 273 273 273 273 273 272 272 272 271 271 271 271 271 271 271 271
272 271 271 271 271 270 270 270 270 270 271 272 271 271 271 271 272 271 271 271 271 271 271 270 270 269 269 268 268 268 269 271 272 272 272 273 272 269 266 265 266 267 267 268 269 269 270 271 271 271 272 272 272 272 273 274 274 275 275 275 275 275 275 275 274 274 274 274 273 273 273 273 272 272 272 271 271 271 270 270 270 270 270 270 270 269 269
271 270 270 270 269 269 269 268 268 268 269 269 270 270 270 270 270 270 270 270 271 271 271 271 271 270 269 268 267 266 268 270 271 271 272 272 270 267 265 265 266 267 267 268 269 269 270 270 271 271 271 272 273 273 273 274 274 274 275 275 275 274 274 274 274 273 273 273 272 272 272 271 271 271 270 270 270 270 270 269 269 269 269 269 268 268 268
270 269 268 268 268 267 267 267 266 266 266 267 267 268 269 269 269 268 268 268 269 270 270 270 270 268 267 267 266 266 267 269 270 271 271 272 271 269 267 266 265 266 267 268 268 269 270 270 271 272 272 273 273 273 273 273 273 274 274 274 273 273 273 272 272 272 271 271 271 270 270 270 269 269 269 269 269 269 268 268 268 268 267 267 267 267 267
268 268 267 267 266 266 266 265 265 265 265 265 265 266 267 267 267 267 266 266 267 268 268 268 268 267 266 266 266 266 267 268 269 270 270 271 271 270 269 266 265 266 267 268 268 270 271 271 272 272 272 272 272 272 272 272 272 272 272 272 272 272 271 271 271 270 270 269 269 269 268 268 268 268 268 267 267 267 267 266 266 266 266 266 266 266 266
268 268 267 267 266 266 265 265 264 264 264 263 264 265 266 266 266 266 266 266 266 266 266 267 267 268 268 268 268 267 267 267 268 268 268 267 268 269 269 267 266 267 268 269 269 270 271 271 271 271 271 271 271 271 271 271 271 271 271 271 270 270 270 270 269 269 268 268 268 267 267 266 266 266 266 265 265 265 265 265 265 265 265 265 265 265 265
268 267 267 267 266 266 266 265 265 264 264 263 262 263 264 265 265 265 265 265 265 265 266 266 266 267 268 269 268 267 266 267 268 268 268 267 268 268 268 268 268 268 269 269 269 269 269 269 269 269 269 269 269 269 269 270 270 270 270 269 269 268 268 268 268 267 267 266 266 265 265 265 265 264 264 264 264 264 264 264 264 264 264 264 264 264 264
265 266 266 266 266 265 265 264 264 264 263 262 261 262 262 263 263 264 265 265 264 264 265 265 266 266 267 268 267 267 267 268 268 269 270 271 270 268 267 268 269 269 268 268 268 268 268 268 267 267 268 268 268 268 269 269 269 269 268 268 267 267 267 266 266 265 265 264 264 264 264 264 264 264 263 263 263 263 263 263 263 263 263 263 263 263 263
263 264 265 265 264 264 265 264 264 265 264 264 263 262 261 262 263 264 265 265 265 265 265 266 266 266 267 267 267 267 267 268 268 268 269 270 270 268 267 267 268 267 267 267 267 267 267 267 267 267 267 267 267 267 267 267 267 267 266 266 266 265 265 265 264 264 263 263 263 263 263 263 263 263 263 262 262 262 262 262 262 262 262 262 262 262 262
263 263 264 264 264 264 265 266 266 266 266 267 266 263 261 261 263 263 264 265 266 266 266 267 267 267 267 268 268 268 267 267 267 267 267 267 267 267 266 266 266 266 266 267 266 266 266 266 266 266 266 266 266 266 266 266 266 265 265 264 264 264 264 263 263 263 263 262 262 262 262 262 262 262 262 262 262 262 262 262 262 262 262 262 262 262 262
263 263 263 264 265 265 265 265 264 264 264 264 263 261 260 262 263 263 264 265 266 266 266 267 267 267 267 267 268 268 268 267 267 266 266 266 266 266 266 266 266 265 266 266 266 265 265 265 265 265 265 265 265 265 264 264 264 264 263 263 263 263 263 263 263 262 262 262 262 262 262 262 262 262 262 262 262 262 262 262 262 262 262 262 262 262 262
262 262 262 263 264 264 264 264 263 263 262 261 261 260 261 263 263 264 264 265 265 266 266 266 266 266 267 267 266 266 267 267 267 266 265 265 266 265 265 265 265 265 265 265 265 264 264 264 264 264 264 263 264 264 263 263 263 263 263 263 263 263 263 263 263 262 262 262 262 262 262 262 262 263 262 262 262 262 262 262 262 262 261 261 261 261 261
261 261 261 260 260 261 262 262 262 261 261 260 260 261 263 263 263 262 263 264 264 264 263 264 264 265 265 265 265 265 265 265 265 264 264 264 264 264 264 264 264 264 264 264 264 264 264 263 263 263 263 263 263 263 263 263 263 263 263 263 263 263 263 263 263 263 263 262 262 262 262 262 262 262 262 261 261 261 261 261 261 261 261 261 261 261 261
259 259 259 259 258 259 260 260 260 260 260 259 260 261 262 261 261 261 261 262 263 262 261 261 262 263 263 263 263 263 263 263 263 263 263 263 263 263 263 263 263 262 262 263 263 263 263 263 262 262 262 262 262 263 262 262 262 262 263 263 262 262 262 262 262 262 262 262 262 261 261 261 261 261 261 261 261 261 261 261 261 261 261 261 261 261 261
260 259 259 260 260 260 260 260 260 260 260 260 260 261 261 260 260 260 260 261 261 260 260 260 261 261 261 261 261 261 261 262 262 262 262 262 262 262 262 262 262 262 262 262 262 262 262 262 262 262 262 262 262 262 262 262 262 262 262 262 262 262 262 262 262 261 261 261 261 261 261 261 261 261 261 261 261 260 261 261 261 261 261 261 261 261 261
Wind_Speed
8 8 10 14 15 15 17 19 20 21 19 17 15 15 16 13 8 12 18 18 22 24 15 9 9 9 8 8 7 7 6 7 7 6 6 6 6 6 6 7 6 6 6 6 6 9 11 13 14 14 15 16 16 16 16 16 15 15 15 15 15 15 15 15 15 14 15 16 17 19 20 20 20 21 22 22 23 24 25 27 28 30 31 32 33 34 35
8 9 11 14 15 13 13 17 20 20 21 22 21 20 21 19 16 19 24 23 25 21 10 7 9 10 8 7 6 7 7 7 7 7 7 7 7 7 8 7 7 7 6 6 7 8 11 14 16 16 17 17 18 18 18 18 18 17 16 14 13 12 12 13 12 12 12 12 13 15 17 18 18 18 19 20 21 22 23 25 27 28 29 29 31 33 34
7 8 12 14 15 15 15 17 18 18 19 19 19 19 19 17 19 24 22 18 21 14 5 4 6 6 7 6 7 8 7 8 8 8 8 8 8 8 8 8 7 7 7 7 6 8 12 15 16 17 17 18 19 20 20 20 19 18 17 16 14 12 11 10 10 10 10 10 11 12 13 15 16 16 17 17 18 20 22 23 24 25 26 27 28 31 33
6 7 12 15 14 13 14 16 18 19 19 18 19 22 21 18 19 20 15 14 17 8 6 5 7 4 6 7 8 8 6 8 9 9 8 9 9 9 8 7 8 8 8 7 7 9 12 13 14 15 16 17 19 20 21 21 19 18 17 17 15 13 11 10 10 10 11 11 11 12 13 14 15 16 17 17 17 18 19 20 22 22 23 25 26 29 31
8 8 11 13 12 9 10 15 21 24 24 23 23 22 22 20 17 14 13 17 16 5 7 10 11 9 9 8 8 7 7 9 10 9 10 10 10 9 8 7 8 8 8 8 10 12 13 12 13 13 14 16 18 19 19 19 18 18 17 17 15 13 11 11 11 11 11 11 11 12 13 14 15 17 17 18 19 19 19 20 20 21 22 23 25 28 31
7 7 9 9 10 11 12 15 22 27 27 25 22 20 20 19 15 14 16 19 15 7 8 11 9 9 10 9 9 9 8 8 8 9 11 10 9 8 7 8 9 8 7 10 12 14 13 12 11 11 12 14 15 15 16 17 18 18 17 17 16 14 13 12 12 12 12 12 12 12 13 14 15 16 17 18 19 19 20 20 21 22 22 23 25 28 31
5 8 8 8 11 13 9 8 16 21 21 20 20 21 22 21 21 23 24 22 16 10 9 9 8 9 10 9 10 11 9 8 9 12 11 9 8 8 7 7 7 7 8 11 13 14 13 11 11 10 11 13 13 13 15 17 18 17 17 18 18 16 15 14 14 14 13 13 13 13 13 13 14 15 15 16 17 18 18 19 20 21 22 24 25 27 29
4 6 8 9 7 4 4 7 12 13 12 14 17 20 23 24 23 21 22 22 18 14 13 11 9 9 8 8 10 10 9 10 13 14 10 8 9 8 8 9 8 8 11 12 13 13 12 11 12 12 12 13 13 14 15 17 17 17 17 18 19 18 17 16 15 15 14 13 13 12 13 13 13 14 14 15 16 16 17 17 18 20 21 23 24 26 28
3 6 9 7 1 2 5 9 12 15 16 19 19 16 19 20 18 17 20 23 22 21 18 12 7 3 2 6 8 7 9 14 16 14 10 8 8 8 9 11 9 9 10 11 11 11 11 12 13 13 13 14 15 16 16 17 17 17 17 19 20 20 18 17 15 14 14 13 12 12 12 12 13 13 13 14 15 15 16 16 17 19 20 22 23 25 27
2 5 8 6 3 7 11 13 16 20 19 16 14 9 12 14 17 21 24 25 24 20 15 11 6 2 5 11 7 7 12 18 15 10 8 7 9 10 11 11 9 9 9 9 10 11 12 12 12 12 13 14 15 16 16 16 17 17 18 19 19 19 18 16 15 14 13 13 13 13 13 13 13 13 13 14 15 15 15 16 17 18 19 21 22 24 26
4 6 7 7 8 13 11 11 14 14 12 10 11 4 13 17 20 22 24 24 21 15 11 10 8 6 11 13 6 9 15 16 10 9 10 10 11 12 9 7 8 9 9 8 8 9 10 10 10 10 12 13 15 15 15 14 15 15 16 17 17 18 18 16 15 14 13 14 13 13 13 13 13 13 14 14 14 14 15 15 16 18 19 20 22 23 24
6 9 7 5 8 10 7 13 14 13 14 15 13 6 15 16 16 19 22 23 20 15 12 10 10 11 15 12 6 9 12 10 8 9 10 9 9 6 4 3 3 5 5 5 6 6 7 8 9 10 11 13 13 13 12 12 12 12 13 14 15 16 16 15 15 14 14 14 13 13 13 12 12 12 13 14 15 15 15 15 16 17 18 19 20 20 21
8 10 8 5 7 6 7 13 15 16 16 13 11 12 11 7 13 17 19 20 18 16 13 10 10 15 14 8 6 8 8 8 6 4 3 5 5 7 8 5 4 6 6 5 6 6 7 8 8 10 12 13 13 12 12 11 10 9 10 11 14 15 14 14 14 14 14 14 13 13 13 12 12 12 12 13 14 14 15 15 16 16 16 17 18 18 19
6 7 6 5 7 5 9 13 16 19 15 10 12 9 2 7 12 14 16 18 18 17 17 15 15 15 10 8 9 9 9 9 7 5 6 8 9 9 8 6 6 9 10 10 10 9 8 9 9 10 13 13 13 13 12 11 9 7 6 9 13 14 14 13 13 13 13 12 12 12 13 13 13 13 13 13 13 13 14 15 16 16 16 17 18 18 19
3 3 5 6 8 6 15 17 15 16 13 10 6 2 5 4 8 10 11 13 14 15 17 17 16 12 8 9 9 8 8 8 7 7 6 7 8 8 8 8 9 13 14 12 11 9 8 9 10 11 13 13 13 12 11 9 8 7 7 9 12 13 13 13 13 12 12 12 11 12 12 13 13 13 14 14 13 13 14 15 15 16 16 16 17 17 18
6 6 10 8 4 5 17 18 13 11 8 3 3 3 2 1 3 7 8 8 9 12 12 11 10 9 8 9 9 8 8 7 7 6 6 7 7 8 9 9 11 14 15 14 12 10 8 8 9 10 12 14 14 12 10 9 9 9 9 10 12 13 13 13 13 12 11 10 10 11 11 12 12 13 13 13 13 13 13 14 14 14 14 15 15 16 17
9 7 8 6 1 5 11 10 8 11 8 1 3 4 5 4 4 5 7 7 9 11 11 9 9 8 8 8 9 9 8 7 7 7 6 7 9 9 11 11 12 15 17 16 15 13 10 9 10 9 10 12 14 12 10 9 10 10 11 11 12 12 12 12 11 11 10 9 9 9 9 10 11 12 12 12 12 12 12 12 13 13 13 14 15 16 17
8 8 5 3 1 5 8 4 5 12 11 0 4 1 3 5 6 5 6 8 8 9 9 9 8 7 8 8 8 8 8 7 7 7 7 8 10 11 12 13 14 17 17 17 16 15 13 12 12 11 10 11 12 11 9 8 8 9 10 11 11 11 10 10 9 8 8 8 7 6 7 8 9 10 11 11 11 11 11 12 12 13 13 14 15 16 16
8 11 9 6 4 7 9 5 5 8 6 4 4 2 2 0 3 4 3 5 7 8 8 9 8 7 8 10 8 7 8 8 8 8 7 8 9 11 12 13 15 16 16 15 14 15 15 13 13 14 14 13 12 10 9 8 8 9 10 11 12 11 10 9 9 7 7 7 7 6 6 6 7 7 8 9 10 10 11 12 12 13 14 15 16 16 17
8 9 8 7 7 8 9 7 6 6 5 4 5 5 3 3 4 5 5 5 7 6 6 8 9 7 8 10 10 8 7 7 8 8 7 8 9 12 13 14 14 15 15 14 14 15 15 14 15 16 16 15 13 12 11 10 9 10 11 12 12 12 11 10 9 8 7 7 7 6 6 5 6 6 7 8 9 9 10 11 12 13 14 16 17 18 18
7 8 5 6 7 7 9 7 5 5 5 6 6 5 5 5 5 5 6 5 4 5 6 7 9 9 9 9 10 10 8 8 8 7 8 10 12 14 15 16 16 16 16 16 16 16 15 15 16 17 17 16 14 14 13 11 10 12 14 13 13 12 11 10 10 8 7 6 5 5 6 5 4 4 4 6 8 9 9 9 11 12 13 15 16 18 18
12 12 8 7 6 5 7 6 5 5 6 7 7 6 6 6 6 6 6 5 5 3 3 5 9 10 8 8 10 10 8 8 9 9 10 12 14 15 18 19 19 19 18 18 19 19 16 16 17 18 17 16 15 14 13 11 10 13 15 15 15 13 12 11 10 8 8 7 5 4 4 4 4 2 2 3 5 7 8 9 10 11 12 13 14 15 16
12 8 8 9 6 4 6 9 9 9 8 8 9 9 8 8 7 8 9 6 4 3 2 2 6 10 9 9 11 10 7 8 10 12 13 13 14 16 18 19 19 19 19 20 21 20 18 18 19 18 18 17 15 14 13 11 10 12 14 16 16 14 12 12 10 9 9 8 6 5 4 3 2 2 2 2 4 5 7 8 10 11 12 14 14 14 14
8 3 9 11 6 5 9 12 13 11 9 9 11 10 9 9 8 9 9 8 8 8 4 2 4 9 10 10 11 12 10 8 11 14 15 16 17 18 19 19 19 19 19 20 21 20 19 19 19 18 18 17 15 14 14 12 10 10 12 14 16 14 13 12 10 9 9 8 6 6 5 3 2 1 1 2 4 5 5 6 8 10 12 14 15 16 16
7 4 8 11 9 8 9 11 12 11 9 9 9 9 8 8 8 8 8 6 7 10 9 6 6 10 11 10 10 12 11 10 14 18 18 18 19 20 19 19 19 19 19 20 21 21 21 21 20 19 19 17 15 15 14 12 11 11 12 14 15 15 13 12 11 10 9 8 7 6 5 5 4 3 2 2 3 4 5 6 7 7 8 10 13 15 17
7 5 6 8 8 7 6 7 10 11 9 8 7 6 7 9 8 7 6 5 5 7 8 8 7 10 12 11 11 12 12 13 17 20 18 16 16 18 19 20 21 21 22 22 22 22 22 22 21 20 19 17 16 16 15 13 13 14 15 15 16 15 14 13 12 12 10 10 9 8 7 6 5 4 4 2 2 3 5 7 8 8 8 8 9 10 12
5 6 7 6 5 6 6 8 10 10 9 9 8 7 7 8 9 8 8 7 7 8 8 10 11 12 14 15 16 15 15 16 17 16 16 15 16 17 21 24 25 25 25 23 22 21 21 21 22 21 20 17 16 16 15 14 14 15 16 16 16 16 15 13 13 13 11 11 9 9 8 7 6 5 4 3 2 3 4 5 7 8 9 9 9 10 10
3 3 4 5 8 9 8 6 4 4 6 7 8 9 9 8 9 9 8 8 8 8 8 11 13 12 12 14 15 14 14 14 12 11 14 16 19 21 24 26 26 26 25 24 21 20 20 21 21 21 19 16 16 15 14 14 15 16 17 16 16 16 15 13 12 12 11 10 9 8 7 6 5 4 4 2 2 2 3 4 5 7 9 9 9 9 10
3 3 3 2 3 5 6 4 3 5 6 6 8 9 10 10 9 8 7 7 7 7 7 9 10 11 11 12 13 11 10 10 10 12 15 19 22 24 26 27 28 27 26 24 21 19 20 20 20 20 18 15 15 16 14 14 15 16 16 15 15 15 14 12 11 10 9 8 7 6 5 5 4 3 3 2 2 2 2 3 4 6 8 9 9 10 10
5 4 4 3 1 4 8 7 6 6 7 7 8 8 8 10 10 7 6 6 6 7 7 6 8 10 10 10 11 12 13 14 16 18 19 22 23 25 27 28 26 23 21 20 19 18 19 20 20 19 17 14 15 15 15 15 16 15 15 15 14 14 13 11 10 9 9 8 7 6 6 5 4 4 3 3 3 3 3 4 5 6 8 9 10 10 11
4 4 4 3 1 3 6 6 6 6 6 7 8 8 8 9 10 9 7 7 6 6 7 8 8 9 9 11 16 19 20 21 21 22 22 22 21 20 21 22 21 18 16 17 18 18 19 20 20 18 16 14 14 14 14 15 15 15 15 15 14 13 11 10 9 9 8 8 7 7 6 6 5 4 4 4 3 3 3 4 5 7 8 9 10 10 10
1 3 5 3 3 4 4 5 6 6 6 6 8 9 8 8 10 10 9 7 7 7 9 9 8 9 13 17 21 23 23 23 23 22 22 22 21 20 21 23 24 23 21 20 19 19 20 21 20 17 16 15 14 14 14 14 14 14 15 14 13 12 11 10 9 9 8 7 7 6 6 5 4 3 3 3 3 3 4 5 7 7 8 9 10 10 10
2 2 0 1 3 4 5 6 6 7 7 6 5 5 5 6 7 8 8 8 8 8 8 8 10 14 18 21 22 22 23 23 21 19 20 21 22 23 25 26 27 26 24 22 20 20 21 21 19 17 16 15 15 14 14 14 14 14 14 13 13 12 11 10 10 9 8 8 7 6 5 4 3 3 3 3 4 5 5 6 7 8 9 11 11 11 11
3 3 4 4 2 3 6 7 6 6 7 6 5 6 7 7 7 8 8 8 8 8 9 11 15 19 21 21 21 21 20 16 12 11 15 19 22 24 26 27 28 27 25 23 22 21 20 19 18 16 15 15 15 14 14 14 14 14 13 13 12 11 11 10 9 8 8 7 7 6 5 5 4 4 4 4 5 5 6 7 8 9 10 12 12 12 12
4 4 4 4 3 2 4 6 6 7 8 8 7 7 7 7 8 9 9 8 9 12 14 17 19 20 20 19 17 15 13 12 12 14 17 21 23 25 27 28 28 27 25 23 21 19 18 17 16 15 14 13 14 14 14 14 13 13 12 11 11 10 10 9 8 8 7 7 6 6 5 5 5 5 5 5 5 6 6 7 8 9 11 12 13 13 13
4 3 4 5 6 8 8 7 7 7 9 9 8 9 9 9 10 11 11 12 14 16 18 19 20 18 16 14 14 13 14 16 18 20 21 22 23 24 25 25 24 24 24 21 18 16 15 15 14 14 13 13 13 14 13 13 12 12 11 11 10 9 9 8 8 7 7 6 6 5 5 5 5 5 6 6 7 7 8 8 9 10 11 13 14 15 16
6 5 5 5 7 9 10 9 8 9 11 10 9 10 10 10 12 15 16 17 17 17 18 19 18 16 14 15 17 18 18 18 20 21 22 22 22 22 22 20 19 18 18 15 12 12 13 13 13 12 12 11 12 12 11 11 11 11 10 10 9 9 8 7 7 6 6 6 6 5 5 6 6 6 6 6 7 8 9 10 11 12 13 14 15 16 18
7 8 8 7 8 10 11 12 12 14 14 13 12 12 13 14 16 18 19 18 17 18 20 21 20 19 19 19 20 19 19 19 21 22 22 20 20 20 19 16 14 15 14 12 11 12 12 11 11 11 11 10 11 11 10 9 9 9 9 8 8 7 7 6 6 5 5 5 5 5 6 6 6 7 7 7 8 9 10 11 12 13 14 15 16 17 18
8 8 9 9 9 9 10 13 15 15 15 15 13 12 15 18 20 20 20 18 18 20 22 22 21 19 18 18 17 16 17 18 20 21 20 19 20 21 19 16 15 16 15 13 12 12 10 9 10 10 9 9 9 9 8 8 7 7 7 6 6 6 5 5 5 5 5 5 6 6 7 7 7 8 8 9 10 10 11 12 13 13 15 15 16 17 17
8 8 9 10 11 10 10 11 12 15 17 17 15 13 15 18 20 20 19 18 17 18 20 21 19 16 14 15 15 15 16 17 19 21 21 22 22 21 18 14 13 14 13 12 12 11 9 8 9 8 8 8 8 7 7 6 6 5 5 5 5 5 5 4 5 5 5 6 7 7 8 8 9 9 10 11 11 12 12 13 13 14 15 16 16 17 17
9 9 9 10 10 9 9 10 11 16 21 23 21 18 17 18 19 19 17 17 18 18 19 20 19 17 15 17 18 17 17 18 18 18 17 17 16 14 10 7 8 10 11 10 9 9 8 8 8 7 7 7 6 6 6 5 5 5 5 5 5 5 5 5 6 6 6 7 8 8 9 9 10 11 11 12 12 13 13 14 14 15 16 16 17 18 18
10 10 10 10 8 8 9 9 10 13 18 23 24 22 20 20 21 21 19 20 22 22 22 22 22 21 20 21 21 20 18 17 17 16 14 12 11 9 8 7 8 9 9 8 8 8 7 7 6 6 6 5 5 5 5 5 5 5 5 5 5 5 6 6 6 7 7 8 8 9 9 10 11 12 12 12 13 14 14 15 16 16 17 17 18 18 19
9 9 9 9 8 8 9 10 10 11 14 20 24 25 24 24 25 25 23 22 22 22 21 21 21 20 19 20 20 19 16 15 16 17 17 15 13 11 11 11 10 8 7 7 6 6 6 6 5 5 4 4 4 4 4 4 4 5 5 5 6 6 7 7 7 7 8 8 8 9 9 10 11 12 13 14 14 15 15 16 17 17 18 18 18 19 19
10 10 9 9 9 9 9 9 10 10 11 15 21 24 26 26 25 24 24 24 22 21 20 20 19 18 17 18 18 17 14 13 13 14 15 14 13 11 9 9 8 7 6 5 5 6 5 4 4 4 4 4 4 4 5 5 5 5 6 6 7 7 7 7 7 7 8 8 9 9 9 10 11 12 13 14 15 15 16 17 17 18 18 18 19 19 20
12 13 14 15 14 12 11 11 11 12 15 20 24 26 25 25 23 23 23 23 22 20 19 19 18 18 17 18 18 16 13 12 11 10 9 7 6 5 5 6 5 4 4 4 5 5 4 4 4 4 5 5 5 5 6 6 6 6 6 6 7 7 7 7 8 8 8 9 9 10 10 11 11 12 13 14 15 16 17 17 18 18 18 19 19 20 20
12 15 17 17 15 14 14 15 16 20 24 26 23 21 21 22 23 22 22 22 21 19 18 18 17 16 15 15 15 14 13 13 11 10 8 7 6 5 5 4 3 1 2 4 5 5 5 5 6 6 6 6 6 7 7 7 6 6 6 7 7 7 7 8 8 8 9 9 10 10 11 11 12 12 13 14 15 16 17 17 18 18 18 18 19 19 19
13 14 17 17 15 15 18 20 20 21 21 17 10 9 14 19 21 20 19 19 19 17 17 16 15 14 13 12 11 11 11 11 9 7 6 6 6 5 4 3 1 2 4 6 6 6 6 7 7 7 8 7 7 7 7 7 7 7 7 7 7 8 8 8 8 9 9 10 10 11 11 12 13 14 14 15 16 16 17 17 18 19 18 18 18 19 19
14 14 16 17 17 18 21 22 19 14 11 9 7 8 12 16 18 18 17 16 16 16 15 13 12 11 10 9 8 8 7 7 5 4 3 3 3 3 2 2 4 6 7 7 7 7 7 8 8 8 8 8 8 8 8 8 8 8 8 8 8 9 9 9 10 10 10 11 11 12 13 14 15 16 16 17 17 17 17 18 19 19 19 19 20 20 21
16 16 18 19 20 19 18 15 10 6 6 9 10 10 10 12 14 15 15 14 13 13 13 11 10 8 7 6 6 5 4 3 2 1 1 1 1 2 4 6 7 8 9 9 8 8 8 8 8 9 9 9 9 9 9 9 9 9 9 9 10 10 10 11 11 11 12 13 13 14 15 16 17 17 17 18 19 19 19 20 20 21 21 21 22 22 22
16 15 14 14 15 16 14 11 6 6 8 10 10 9 9 10 10 10 10 11 11 10 10 9 8 6 4 4 3 3 3 2 1 1 3 4 5 6 7 8 8 9 9 10 10 9 9 9 9 9 9 10 10 10 10 10 10 10 10 11 11 11 12 12 12 13 14 14 15 15 16 17 17 18 18 19 20 20 21 21 21 21 21 22 22 23 23
14 12 10 10 12 14 14 12 10 9 10 10 9 9 10 10 8 7 8 8 8 7 7 7 6 4 3 2 2 4 5 5 4 3 4 5 6 8 9 9 10 10 10 10 10 10 10 10 10 10 10 11 11 11 11 11 11 11 12 12 12 12 13 13 13 14 14 14 15 16 16 17 18 19 20 20 21 21 21 22 22 22 22 22 23 23 23
13 12 12 12 13 13 14 13 12 10 10 9 8 8 8 8 8 7 6 6 6 6 5 4 3 2 3 5 6 5 6 6 6 6 7 8 9 10 10 11 11 11 11 11 11 11 11 11 11 11 12 12 12 12 12 12 12 12 13 13 13 13 13 13 14 15 15 15 15 16 17 17 18 19 20 20 21 21 22 22 22 22 22 22 22 23 23
Wind_Direction
173 129 139 158 168 176 178 176 179 185 184 183 194 210 216 211 207 229 235 229 237 246 236 195 198 209 214 217 200 184 172 160 162 167 179 209 229 226 222 225 221 215 217 214 203 205 207 207 210 210 209 209 208 208 207 204 204 207 211 216 216 216 219 222 225 229 229 227 224 225 227 228 228 229 229 230 231 231 230 228 227 228 228 226 222 216 211
182 148 146 164 175 176 179 184 187 186 186 191 197 206 214 213 212 227 231 231 238 242 221 191 205 201 202 202 166 153 156 154 164 183 199 214 223 220 217 219 216 206 206 209 199 197 202 204 208 210 209 211 212 212 211 210 209 210 212 216 217 218 224 228 230 235 239 239 235 229 227 228 228 228 228 229 230 230 230 228 228 227 226 224 221 216 212
199 165 154 168 178 176 180 189 191 189 190 197 204 212 217 215 220 231 234 243 253 246 173 176 225 192 173 164 154 165 166 164 180 199 212 221 225 225 220 214 213 204 199 203 198 197 206 209 211 213 214 215 216 216 216 216 215 213 211 211 213 217 221 223 225 229 231 232 233 231 228 227 228 229 229 229 230 229 228 226 226 226 225 223 219 215 211
206 186 168 171 174 179 188 191 190 189 189 196 205 213 214 208 215 228 234 246 253 234 145 199 237 202 173 168 172 184 180 182 197 205 216 227 231 231 228 218 213 206 200 202 204 212 219 219 219 221 219 216 216 217 219 220 218 213 210 209 210 214 215 213 215 220 223 224 224 225 224 223 223 226 229 231 232 231 229 228 227 226 225 223 219 215 211
204 193 174 168 163 174 201 200 192 188 193 199 204 212 216 211 211 216 219 232 237 191 153 208 221 211 208 200 188 191 196 204 211 212 216 226 233 233 230 220 212 207 204 204 210 220 229 232 233 234 227 220 222 224 222 220 216 210 207 207 209 211 210 208 212 217 219 220 221 222 222 221 220 221 222 224 226 228 229 229 228 226 225 224 220 216 212
185 163 154 155 169 197 214 205 193 191 194 198 202 214 218 213 215 221 228 237 236 204 192 212 211 207 210 208 204 200 198 207 221 228 227 228 233 235 232 224 216 210 207 209 214 224 235 242 243 241 234 230 233 231 223 217 212 208 205 203 205 209 208 206 210 214 216 218 220 221 221 219 220 220 220 221 221 223 225 225 224 224 223 222 220 217 215
158 148 149 166 202 219 213 182 185 194 198 198 204 221 222 211 215 224 232 241 239 225 224 223 219 219 210 205 212 206 195 203 226 240 237 223 222 230 231 228 220 208 204 207 214 224 233 238 236 232 231 230 227 222 216 212 210 208 204 201 202 205 206 205 207 211 214 216 217 218 218 218 218 219 220 220 220 221 222 223 223 223 221 220 218 217 215
146 152 172 192 215 218 142 145 165 176 192 202 209 227 229 217 214 221 232 243 243 235 233 224 213 212 205 211 221 207 196 211 230 239 234 210 210 220 223 227 221 205 205 209 216 225 227 226 225 225 225 222 214 210 210 209 209 207 203 201 201 202 204 205 207 211 214 215 215 216 217 218 219 221 221 221 220 220 221 221 221 221 220 219 218 215 213
168 166 189 209 306 71 164 182 173 170 189 199 200 222 235 222 212 217 227 234 234 229 228 220 204 182 208 246 235 195 200 224 229 232 224 203 205 211 214 218 206 191 202 211 216 221 218 216 220 220 218 213 205 200 201 204 205 202 200 202 202 202 203 205 207 210 214 216 216 217 218 220 222 224 225 224 222 219 218 217 218 219 219 219 218 215 213
165 161 190 210 243 230 213 197 182 183 193 193 183 214 249 227 207 211 221 227 228 226 221 207 189 171 258 256 230 169 208 229 228 227 229 216 215 220 219 216 202 196 207 210 208 211 208 208 215 215 210 205 197 193 195 198 199 197 200 204 203 202 202 204 206 209 214 219 220 219 220 222 225 228 228 226 223 219 218 217 218 219 218 217 216 214 213
157 174 193 191 217 237 219 176 174 180 174 146 129 182 255 238 210 207 218 225 224 220 208 188 170 187 237 246 208 170 212 226 214 211 226 229 232 234 228 219 211 209 212 210 207 209 204 201 206 206 202 197 192 189 189 193 196 197 200 204 205 203 203 203 206 208 212 219 223 224 225 225 226 229 228 224 220 217 217 218 218 217 214 213 213 213 214
174 185 198 196 230 245 187 153 166 165 143 124 120 195 252 239 203 199 212 219 218 209 197 182 176 203 229 238 206 188 209 211 192 202 217 222 226 212 159 146 174 172 179 194 197 197 194 196 199 197 192 187 184 183 183 188 197 203 205 206 206 206 204 202 205 209 211 216 221 226 231 231 229 229 226 222 218 213 211 212 212 212 212 212 214 216 218
186 192 205 225 250 242 162 158 162 144 127 128 162 213 236 192 171 192 204 207 209 204 191 185 202 220 225 216 177 171 172 168 170 171 136 129 127 114 110 118 135 131 134 148 153 157 172 183 188 189 185 177 173 174 176 182 195 211 217 210 204 203 201 199 201 206 209 215 221 225 230 231 229 227 225 223 220 214 209 207 206 208 210 213 217 221 224
190 200 209 238 260 227 156 153 151 141 145 181 199 207 198 133 162 188 194 194 197 195 191 196 212 219 202 156 150 155 154 156 152 123 105 103 99 102 112 125 141 143 141 141 143 148 161 172 179 182 179 171 166 168 173 179 189 203 210 204 200 198 195 193 197 202 207 213 220 224 226 226 225 223 222 221 220 214 209 208 207 209 213 217 220 223 226
162 193 202 232 261 209 146 145 156 163 177 201 192 107 43 104 155 166 184 197 194 189 196 204 209 207 171 146 157 163 157 152 141 137 136 126 120 123 121 126 145 148 139 132 133 136 146 162 171 176 173 165 159 162 166 170 177 179 179 187 191 191 189 190 193 198 204 211 217 221 222 222 221 220 218 216 215 212 211 211 211 212 216 219 221 222 224
165 188 199 209 250 166 149 153 171 189 199 202 147 125 72 44 150 157 176 196 186 182 194 201 201 195 167 156 161 156 149 147 140 136 128 118 120 119 113 120 139 139 127 117 113 112 119 137 152 166 170 160 151 151 154 160 168 169 169 177 181 179 181 183 186 191 197 204 211 216 218 217 216 216 215 214 214 215 215 215 215 215 218 220 220 220 223
194 206 204 194 177 175 174 168 169 189 207 304 53 140 160 181 207 181 170 183 183 177 176 176 184 189 174 161 156 150 150 149 136 127 115 110 114 116 115 120 131 131 124 117 111 104 102 113 126 144 160 153 140 135 143 158 166 164 166 173 172 169 170 173 176 181 185 192 203 209 213 215 213 214 215 214 214 216 217 217 217 216 218 219 219 220 222
227 260 244 183 146 199 205 222 193 188 194 108 41 71 184 185 181 155 157 178 177 163 156 157 171 182 166 150 144 141 141 136 129 123 114 111 120 125 122 119 123 124 119 114 110 101 93 98 107 115 129 134 126 124 137 153 158 159 163 163 157 155 157 158 161 168 169 172 184 191 198 206 211 216 219 216 214 215 213 214 217 217 218 219 219 220 224
209 240 228 185 182 202 198 217 230 195 168 83 74 73 349 229 139 109 106 148 148 143 148 152 161 170 154 141 142 144 139 138 140 136 127 124 126 124 122 121 122 120 113 108 104 93 83 85 95 102 107 111 111 115 125 131 137 145 149 145 140 139 139 138 140 147 151 154 161 168 178 191 201 211 219 218 216 216 213 213 215 216 218 220 221 222 226
201 233 228 182 185 205 196 193 212 198 163 114 107 112 78 61 90 76 52 78 122 143 159 153 149 156 156 152 153 152 146 144 143 137 132 127 118 112 114 119 117 112 107 103 97 87 79 80 90 96 97 98 103 109 111 114 125 132 130 129 127 125 124 126 128 130 135 141 150 157 164 177 194 207 216 218 220 224 227 227 226 225 225 227 229 231 232
236 265 253 169 171 210 215 210 229 230 189 154 139 132 114 100 101 92 63 51 90 153 170 156 146 154 169 165 152 145 146 144 139 134 128 120 114 109 109 111 111 108 106 102 97 89 84 87 92 93 92 94 101 106 108 111 122 125 122 121 119 116 116 120 121 121 124 126 135 148 155 162 180 207 225 227 228 236 243 246 245 243 244 245 246 247 245
234 241 215 166 157 192 213 214 233 246 213 177 168 159 140 143 155 139 109 61 40 69 125 143 150 157 162 153 142 140 144 143 138 135 128 119 114 112 111 110 110 107 106 106 102 97 94 97 98 95 93 95 98 102 105 109 118 123 123 121 118 115 117 119 119 120 123 123 120 125 140 159 175 194 239 250 250 252 256 258 257 253 254 258 262 264 262
227 213 168 160 154 154 182 197 209 219 212 194 193 189 175 177 178 157 142 133 116 99 60 91 152 158 151 144 140 132 130 134 131 129 128 125 120 119 118 115 111 108 109 110 108 104 103 104 102 98 97 97 98 102 105 108 114 121 123 122 119 118 119 120 120 121 124 127 123 114 117 142 170 194 246 277 287 280 275 273 269 263 260 261 262 264 267
234 163 155 168 167 163 183 194 203 210 206 198 204 203 187 174 167 161 163 165 161 157 136 81 140 151 144 139 137 131 128 129 122 118 119 119 119 120 119 116 114 114 115 114 112 112 112 110 106 103 100 98 99 104 107 108 112 117 120 120 118 117 119 120 120 118 117 122 123 117 112 114 115 113 327 335 341 334 320 304 290 279 273 270 266 265 265
226 204 179 179 179 182 190 195 206 213 204 192 202 205 181 162 157 157 164 170 166 158 146 131 140 146 141 136 134 130 128 125 122 120 115 112 113 115 114 113 115 116 116 116 116 117 116 113 110 107 102 100 104 108 109 111 114 115 116 116 114 114 118 120 118 115 114 116 116 115 111 107 102 93 71 36 7 352 343 334 325 315 301 291 284 277 272
208 193 174 178 188 188 179 188 211 220 205 183 185 179 148 137 133 125 120 122 135 142 141 137 133 131 130 129 126 124 123 121 121 119 115 111 111 112 112 117 120 119 119 118 117 118 118 116 113 109 104 103 108 112 113 117 120 118 117 116 115 115 118 120 119 116 114 114 114 111 108 104 99 94 87 71 29 343 332 330 331 330 325 320 313 303 292
195 170 149 160 202 214 204 204 212 211 192 171 154 134 116 112 113 104 87 81 89 100 113 123 122 118 119 121 121 121 121 120 117 114 111 109 110 112 118 122 122 120 118 114 113 115 116 114 111 107 103 103 110 114 117 121 123 121 119 118 118 118 118 119 119 116 115 115 115 111 108 104 99 94 87 69 41 13 349 336 327 321 319 320 319 315 312
204 186 152 179 212 215 212 219 212 165 150 140 128 123 115 104 104 107 102 100 102 100 104 118 124 124 125 127 126 122 118 117 115 110 108 110 112 117 120 120 119 118 115 111 109 111 110 108 107 103 99 104 112 115 118 124 125 121 120 120 120 120 119 118 117 116 114 113 111 107 104 100 94 91 85 65 40 15 347 330 321 318 319 320 317 312 311
326 329 359 296 228 173 141 124 110 110 110 109 116 126 128 122 117 119 123 125 124 119 116 121 125 126 129 132 131 126 122 120 116 112 112 115 117 119 120 118 116 113 109 106 106 107 106 104 101 96 95 103 111 113 117 123 123 119 119 119 118 117 115 113 112 111 109 105 101 97 92 87 80 76 70 54 31 6 341 327 320 315 313 314 314 311 311
320 330 2 0 333 142 139 143 145 135 128 126 127 130 136 134 131 130 132 131 128 126 125 121 119 119 121 121 121 120 119 117 114 112 112 115 116 118 119 118 113 105 98 96 99 101 100 97 93 90 91 99 107 112 116 117 116 114 113 113 111 109 109 108 106 104 100 95 91 86 79 73 64 55 50 43 27 11 352 338 326 315 312 313 314 313 313
324 358 22 29 44 145 150 148 139 132 130 131 133 137 138 135 135 139 141 136 130 127 125 121 116 114 112 111 113 113 112 111 110 108 108 110 112 116 120 118 112 105 99 98 99 100 98 93 88 87 90 95 102 107 108 108 109 106 102 99 97 95 94 92 89 85 82 80 78 74 69 64 54 41 35 29 15 358 339 326 318 313 312 312 310 309 311
9 42 26 31 61 86 116 136 138 139 142 144 147 151 151 145 145 147 145 137 131 126 122 118 113 113 115 114 113 111 109 107 105 102 100 100 101 106 111 111 108 106 104 103 102 101 97 92 87 87 90 94 96 98 98 99 100 97 93 90 89 87 85 82 80 77 75 75 73 67 61 57 46 30 22 12 352 334 321 314 309 306 304 301 299 300 300
174 134 25 167 131 133 159 169 157 145 141 137 134 127 112 110 123 129 128 125 123 120 118 117 117 119 119 117 114 113 110 105 99 95 95 94 96 102 107 107 105 102 100 99 100 98 94 90 88 87 89 91 91 92 92 92 92 91 89 87 86 85 83 80 79 78 76 75 72 67 62 57 44 28 15 356 335 324 317 310 305 301 298 295 295 297 297
258 252 267 261 224 186 184 177 155 132 118 99 84 84 87 92 103 110 113 115 116 116 119 122 122 122 120 117 116 117 116 110 102 100 103 104 105 107 109 108 105 102 99 97 96 94 92 91 90 89 88 90 91 91 91 90 89 88 87 86 85 84 83 80 78 76 73 70 67 62 57 49 36 21 4 346 332 322 312 305 302 300 299 299 302 304 302
299 302 314 326 354 61 117 134 134 128 120 110 99 92 91 95 101 104 103 105 111 116 119 120 119 118 116 114 113 113 112 113 117 118 116 115 115 115 113 110 106 101 96 91 90 91 92 94 93 92 91 92 93 92 91 91 90 90 89 89 87 85 84 83 80 76 72 66 58 51 42 30 19 7 352 343 338 329 319 314 310 307 306 308 311 312 312
355 26 41 26 35 60 76 85 98 106 109 110 108 103 98 98 101 104 105 106 110 114 116 116 112 107 102 101 103 106 110 114 118 119 119 120 120 117 112 107 104 99 92 84 81 87 94 96 95 94 94 95 95 94 93 93 93 93 92 90 87 84 82 79 74 68 62 53 44 35 23 12 5 359 349 343 338 331 324 320 317 314 312 313 315 316 316
28 51 62 51 55 67 70 70 82 94 96 93 92 96 98 97 97 101 104 104 106 110 111 108 104 100 97 98 101 103 108 114 117 118 119 120 117 112 104 99 97 95 90 83 82 90 96 96 95 93 92 90 89 88 87 87 87 87 85 82 80 78 74 68 61 53 43 31 22 14 5 358 352 347 341 333 326 323 320 317 316 315 313 313 313 313 313
53 59 66 68 70 72 71 72 79 89 95 92 85 84 91 96 98 99 98 97 102 107 107 105 104 104 103 100 97 96 101 111 117 117 117 119 116 107 97 92 93 95 96 99 101 100 98 98 95 91 86 84 82 80 79 78 76 75 74 71 68 64 59 51 44 35 23 13 4 356 351 345 337 334 332 326 321 318 315 313 311 310 308 308 309 309 310
68 66 69 73 74 74 77 77 74 77 86 93 92 89 91 96 98 96 92 92 100 108 109 108 107 104 102 99 95 93 99 111 118 120 119 120 116 105 94 90 96 102 105 109 107 101 97 97 94 88 83 80 77 74 73 71 68 66 65 62 57 51 45 36 27 17 5 355 348 342 338 335 331 328 326 322 317 314 311 309 307 306 305 306 308 309 309
76 74 75 80 81 79 79 79 72 68 73 81 86 90 96 99 99 95 89 88 96 107 112 111 106 101 100 102 101 98 102 111 119 122 120 117 113 105 96 92 99 104 106 107 103 98 94 91 85 77 72 69 66 62 61 59 56 53 52 47 41 35 26 16 8 359 348 342 338 333 329 326 323 318 315 313 311 310 310 309 307 306 306 307 308 307 307
85 83 80 82 83 79 78 81 78 71 69 70 73 80 90 97 98 94 89 89 94 99 103 104 103 101 103 106 106 107 108 110 114 118 118 115 112 106 98 100 111 110 104 99 95 90 84 76 68 60 56 53 50 48 46 42 36 33 31 25 21 18 11 1 356 349 340 334 330 325 322 320 316 314 314 313 312 311 311 309 307 306 306 305 305 305 304
85 86 81 79 80 77 75 78 81 76 69 67 70 75 82 88 93 94 94 95 96 93 91 94 99 104 107 108 107 106 106 107 109 110 107 106 109 111 114 127 132 119 101 91 84 75 65 56 48 44 41 38 34 31 27 21 15 16 15 9 5 3 358 351 347 341 332 326 322 320 318 316 314 314 315 314 312 312 311 308 306 305 304 304 304 305 304
79 80 79 80 83 83 81 83 86 83 73 67 70 77 81 83 88 92 92 91 90 90 90 91 95 99 104 107 107 103 101 104 107 102 94 88 87 96 112 126 129 112 90 79 67 50 39 32 26 22 19 17 15 12 7 3 0 357 353 352 352 349 344 340 337 331 324 320 319 317 315 313 311 311 310 308 308 308 307 305 304 304 305 305 305 305 304
75 76 80 83 82 81 84 83 80 80 78 73 74 78 80 80 81 85 87 86 84 85 86 87 87 88 93 97 97 96 98 100 101 99 95 87 77 76 95 116 118 102 81 61 37 22 14 7 1 356 351 350 351 350 347 345 342 337 338 340 338 334 331 329 326 323 319 316 313 311 307 305 304 303 303 303 304 305 304 304 305 305 305 305 304 302 302
67 75 85 88 83 76 75 77 81 90 94 86 76 71 72 74 76 79 82 84 82 79 79 81 81 80 82 86 88 91 94 96 96 96 95 87 76 81 108 121 117 99 71 29 5 354 342 334 332 329 327 330 334 333 333 332 330 327 328 327 324 322 322 321 318 315 312 309 307 306 304 303 301 301 300 300 301 301 302 302 302 302 302 301 302 303 304
67 76 81 82 77 74 79 89 97 99 93 85 73 62 62 68 73 74 76 80 81 79 78 80 80 79 82 87 91 92 91 90 89 88 87 91 105 125 135 135 129 101 10 345 334 323 314 313 314 313 315 319 323 324 324 324 320 317 317 318 317 317 316 314 311 311 308 306 305 306 305 303 302 301 301 301 300 301 301 301 301 301 302 302 302 304 305
68 72 71 70 73 82 88 91 91 86 79 74 67 55 58 65 70 73 74 77 80 80 80 79 79 79 82 87 92 95 93 89 84 80 82 97 117 134 145 157 199 297 313 315 311 304 301 302 304 307 311 314 316 317 317 316 313 312 313 314 314 314 313 312 313 312 309 307 306 305 304 303 303 303 304 304 303 303 303 302 301 302 303 302 301 301 301
63 62 64 68 75 82 83 81 77 70 63 65 75 74 69 69 71 72 73 75 77 76 75 73 72 74 78 82 86 92 94 90 84 80 87 108 130 148 180 245 285 298 302 301 299 297 296 298 301 304 306 308 310 311 311 309 308 308 309 310 311 312 311 310 310 309 305 303 302 301 300 301 303 303 302 302 301 301 301 299 298 298 299 298 297 297 297
64 64 64 64 64 66 68 68 64 57 61 71 75 75 75 73 69 64 64 68 71 69 65 63 64 66 72 78 82 83 80 78 92 137 185 220 242 261 274 285 293 297 297 298 299 297 295 296 299 299 301 304 305 306 305 305 304 303 303 304 305 306 306 305 305 304 301 299 298 298 298 298 299 299 299 298 297 297 296 294 293 294 295 294 294 295 296
62 61 56 51 50 54 58 62 67 72 76 76 74 71 75 78 72 59 55 61 68 67 60 53 49 51 62 77 76 59 38 26 1 263 266 278 289 294 296 297 299 299 297 297 298 297 298 300 301 300 301 303 303 303 304 304 302 302 303 303 303 304 304 303 302 301 299 298 297 296 296 297 297 296 295 294 293 293 292 292 293 294 295 295 296 297 299
60 59 58 60 62 64 67 73 80 84 82 78 73 70 73 79 81 69 56 55 60 61 57 52 52 57 57 34 357 352 353 348 334 312 299 298 302 306 307 305 302 300 298 298 299 300 301 302 302 302 303 303 303 304 304 303 302 302 303 303 302 302 302 301 300 299 298 297 296 295 295 296 295 294 293 292 293 293 294 295 296 297 298 299 300 301 302
65 64 66 71 73 72 70 70 70 70 69 65 60 58 59 65 71 70 58 44 39 38 37 35 38 20 334 317 315 327 339 338 331 323 316 310 308 307 305 303 302 301 301 301 301 301 302 302 302 302 302 302 302 301 301 300 299 300 300 300 300 300 299 299 298 298 297 297 296 295 295 295 294 293 293 294 295 295 296 297 298 299 300 301 301 301 301